Location: Maiden
(35.5760°N, 81.2120°W)
Time: 15:19:09
(UTC-04:00)

Meteor 1-16 Rocket - Pass Details

Date: 14 June 2018
Orbit: 789 x 908 km, 81.2° (Epoch: 15 October)

Event Time Altitude Azimuth Distance (km) Brightness Sun altitude
Rises 22:55:56 0° 349° (N) 3,338 8.4 -21.3°
Reaches altitude 10° 22:58:18 10° 348° (NNW) 2,417 7.5 -21.6°
Maximum altitude 23:03:45 75° 264° (W) 866 4.2 -22.3°
Enters shadow 23:05:47 40° 188° (S) 1,214 4.6 -22.5°
